Погода в Верешиме

Россия / Пензенская область     52°32′25″N   45°33′12″E
темп.,
°C
ветер,
м/с
пор.,
м/с
влажн.,
%
обл.,
%
осадки,
мм/ч
давл.,
гПа
погр.,
м
13 июня, вс
вс1300:00+15ю358945 0.0 101182
03:00+14ююз369260 0.3 1011100
06:00+16ю378936 0.0 1011211
09:00+21ююз68732 0.6 1011887
12:00+23ююз710633 0.4 10111686
15:00+23ююз686767 1.3 10111376
18:00+22ююз35771 0.2 1012361
21:00+17ю4791100 0.5 1013126
14 июня, пн
пн1400:00+17ю3492100 0.0 101374
03:00+16ююв33924 0.4 101449
06:00+18ююв349069 0.0 1015163
09:00+21ююв2273100 0.0 1015430
12:00+24ю3465100 0.3 10161133
15:00+21юз5681100 0.5 1016486
18:00+19с1282100 0.3 101599
21:00+18с4885100 0.3 1014205
15 июня, вт
вт1500:00+17з1195100 2.6 101434
03:00+16сз2396100 4.4 101355
06:00+16с3498100 7.1 1012152
09:00+17в249899 12.4 1013305
12:00+23юв367472 0.1 10111129
15:00+24юв587396 3.0 10101231
18:00+21юв5117896 5.1 1009292
21:00+18вюв4109234 5.6 1009191
16 июня, ср
ср1600:00+16вюв33857 0.0 100837
03:00+15ю118629 0.0 100811
06:00+17зюз239097 0.0 1008128
09:00+21зюз348020 0.0 1008644
12:00+23зюз556947 0.0 10081291
15:00+22зюз567451 0.2 10081037
18:00+22зсз468310 0.9 1009573
21:00+18зсз499412 1.6 1011204
17 июня, чт
чт1700:00+17ссз41294100 0.0 1012333
03:00+16ссз4109743 0.0 1014344
06:00+16с5109067 0.0 1016459
09:00+19с68680 0.0 1017952
12:00+20ссв78510 0.0 10181418
15:00+21ссв68540 0.0 10191646
18:00+19ссв59670 0.0 1020647
21:00+14ссв49740 0.0 1022175